QPF
0.05 0.10 0.09 0.06 0.06 0.06 0.06 0.07 0.05 0.02 0.02 0.04 0.03 0.02 0.01 0.00 0.00 0.00 0.00 0.00 0.00 0.00 0.00 0.00 0.00 0.00 0.01 0.01 0.02 0.02 0.02 0.03 0.03 0.02 0.02 0.01 0.01 0.00 0.00 0.00 0.00 0.00 0.00 0.00
0.05 0.08 0.05 0.04 0.05 0.06 0.07 0.09 0.07 0.04 0.02 0.05 0.05 0.02 0.01 0.01 0.01 0.00 0.00 0.00 0.00 0.00 0.00 0.00 0.00 0.00 0.00 0.01 0.01 0.02 0.02 0.02 0.02 0.01 0.01 0.01 0.01 0.00 0.00 0.00 0.00 0.00 0.00 0.00
0.04 0.02 0.03 0.06 0.08 0.10 0.08 0.07 0.06 0.05 0.04 0.06 0.07 0.05 0.01 0.01 0.01 0.00 0.00 0.00 0.00 0.00 0.00 0.00 0.00 0.00 0.00 0.00 0.01 0.01 0.02 0.02 0.01 0.01 0.02 0.01 0.01 0.01 0.00 0.00 0.00 0.00 0.00 0.00
0.03 0.01 0.02 0.06 0.08 0.11 0.10 0.04 0.05 0.07 0.10 0.11 0.10 0.10 0.02 0.00 0.00 0.00 0.00 0.00 0.00 0.00 0.00 0.00 0.00 0.00 0.00 0.00 0.00 0.01 0.01 0.02 0.02 0.01 0.01 0.01 0.01 0.00 0.00 0.00 0.00 0.00 0.00 0.00
0.04 0.03 0.04 0.05 0.03 0.06 0.07 0.05 0.05 0.06 0.12 0.16 0.11 0.13 0.04 0.00 0.00 0.00 0.00 0.00 0.00 0.00 0.00 0.00 0.00 0.00 0.00 0.00 0.00 0.00 0.01 0.02 0.02 0.02 0.01 0.00 0.00 0.00 0.00 0.00 0.00 0.00 0.00 0.00
0.01 0.02 0.04 0.04 0.03 0.03 0.04 0.06 0.08 0.09 0.15 0.23 0.10 0.11 0.05 0.00 0.00 0.00 0.00 0.00 0.00 0.00 0.00 0.00 0.00 0.00 0.00 0.00 0.00 0.01 0.01 0.02 0.02 0.02 0.01 0.00 0.00 0.00 0.00 0.00 0.00 0.00 0.00 0.00
0.01 0.01 0.02 0.03 0.04 0.03 0.05 0.11 0.16 0.17 0.21 0.16 0.04 0.08 0.05 0.00 0.00 0.00 0.00 0.00 0.00 0.00 0.00 0.00 0.00 0.00 0.00 0.01 0.01 0.01 0.01 0.02 0.02 0.02 0.02 0.01 0.00 0.00 0.00 0.00 0.00 0.00 0.00 0.00
0.03 0.03 0.03 0.04 0.05 0.04 0.05 0.10 0.15 0.13 0.09 0.03 0.02 0.04 0.02 0.00 0.00 0.00 0.00 0.00 0.00 0.00 0.00 0.00 0.00 0.00 0.00 0.00 0.01 0.01 0.01 0.02 0.02 0.02 0.02 0.01 0.01 0.00 0.00 0.00 0.00 0.00 0.00 0.00
0.05 0.03 0.02 0.02 0.03 0.04 0.06 0.06 0.07 0.14 0.11 0.05 0.02 0.02 0.01 0.00 0.00 0.00 0.00 0.00 0.00 0.00 0.00 0.00 0.00 0.00 0.00 0.00 0.01 0.01 0.01 0.01 0.02 0.02 0.01 0.02 0.01 0.01 0.00 0.00 0.00 0.00 0.00 0.00
0.06 0.04 0.01 0.01 0.03 0.05 0.06 0.07 0.07 0.12 0.12 0.08 0.04 0.02 0.02 0.01 0.01 0.00 0.00 0.00 0.00 0.00 0.00 0.00 0.00 0.00 0.00 0.00 0.00 0.00 0.01 0.01 0.01 0.01 0.02 0.02 0.01 0.01 0.01 0.00 0.00 0.00 0.00 0.00
0.05 0.05 0.02 0.02 0.04 0.10 0.11 0.10 0.10 0.10 0.08 0.08 0.06 0.04 0.04 0.03 0.01 0.01 0.00 0.00 0.00 0.00 0.00 0.00 0.00 0.00 0.00 0.00 0.01 0.01 0.01 0.01 0.01 0.01 0.01 0.01 0.01 0.01 0.01 0.01 0.00 0.00 0.00 0.00
0.03 0.04 0.04 0.02 0.04 0.06 0.10 0.12 0.11 0.12 0.10 0.06 0.06 0.05 0.04 0.03 0.02 0.02 0.01 0.00 0.00 0.00 0.00 0.00 0.00 0.00 0.00 0.00 0.00 0.01 0.01 0.01 0.01 0.01 0.01 0.01 0.01 0.01 0.01 0.01 0.01 0.00 0.00 0.00
0.05 0.06 0.05 0.05 0.05 0.04 0.06 0.08 0.11 0.10 0.08 0.08 0.07 0.05 0.04 0.03 0.03 0.02 0.01 0.01 0.00 0.00 0.00 0.00 0.01 0.00 0.00 0.00 0.01 0.01 0.01 0.01 0.01 0.02 0.02 0.01 0.01 0.01 0.01 0.01 0.01 0.01 0.00 0.00
0.05 0.05 0.04 0.05 0.05 0.05 0.05 0.05 0.05 0.08 0.08 0.05 0.04 0.03 0.04 0.04 0.04 0.04 0.02 0.01 0.01 0.00 0.00 0.00 0.01 0.01 0.00 0.00 0.00 0.01 0.01 0.01 0.01 0.02 0.02 0.02 0.01 0.01 0.01 0.01 0.01 0.01 0.01 0.00
0.02 0.02 0.01 0.01 0.01 0.02 0.03 0.04 0.04 0.05 0.06 0.05 0.04 0.04 0.06 0.05 0.05 0.05 0.05 0.03 0.02 0.01 0.01 0.01 0.01 0.00 0.01 0.00 0.00 0.00 0.00 0.01 0.01 0.01 0.01 0.01 0.01 0.01 0.01 0.01 0.01 0.01 0.01 0.01
0.02 0.01 0.01 0.01 0.01 0.01 0.02 0.02 0.03 0.03 0.04 0.05 0.05 0.06 0.06 0.07 0.05 0.05 0.05 0.06 0.04 0.02 0.01 0.01 0.01 0.01 0.00 0.00 0.00 0.00 0.00 0.00 0.01 0.01 0.01 0.01 0.02 0.02 0.02 0.02 0.02 0.01 0.01 0.01
0.02 0.02 0.02 0.01 0.01 0.02 0.05 0.06 0.05 0.05 0.05 0.05 0.06 0.07 0.05 0.06 0.07 0.06 0.06 0.06 0.06 0.05 0.03 0.01 0.01 0.01 0.01 0.00 0.00 0.00 0.00 0.00 0.00 0.00 0.01 0.01 0.01 0.01 0.01 0.01 0.01 0.01 0.01 0.01
0.02 0.02 0.03 0.02 0.02 0.05 0.09 0.06 0.06 0.07 0.06 0.05 0.06 0.05 0.05 0.06 0.07 0.06 0.06 0.06 0.07 0.06 0.05 0.03 0.01 0.01 0.01 0.00 0.00 0.00 0.00 0.00 0.00 0.00 0.00 0.00 0.00 0.01 0.01 0.01 0.01 0.01 0.01 0.01
0.01 0.02 0.03 0.03 0.03 0.04 0.06 0.04 0.06 0.08 0.08 0.05 0.04 0.03 0.05 0.05 0.05 0.06 0.05 0.05 0.05 0.06 0.05 0.03 0.02 0.01 0.01 0.00 0.00 0.00 0.00 0.00 0.00 0.00 0.00 0.00 0.00 0.00 0.00 0.01 0.01 0.00 0.00 0.00
0.02 0.02 0.03 0.04 0.04 0.06 0.06 0.03 0.04 0.06 0.08 0.04 0.03 0.03 0.04 0.05 0.05 0.05 0.04 0.04 0.03 0.04 0.04 0.04 0.02 0.01 0.01 0.01 0.00 0.00 0.00 0.00 0.00 0.00 0.00 0.00 0.00 0.00 0.00 0.00 0.00 0.00 0.00 0.00
0.02 0.03 0.04 0.04 0.05 0.05 0.04 0.02 0.03 0.06 0.08 0.03 0.03 0.03 0.04 0.06 0.06 0.04 0.03 0.03 0.02 0.02 0.03 0.03 0.02 0.01 0.01 0.01 0.01 0.00 0.00 0.00 0.00 0.00 0.00 0.00 0.00 0.00 0.00 0.00 0.00 0.00 0.00 0.00
0.01 0.02 0.02 0.03 0.04 0.04 0.03 0.03 0.06 0.07 0.03 0.02 0.02 0.02 0.03 0.04 0.05 0.04 0.03 0.03 0.02 0.02 0.02 0.02 0.02 0.01 0.01 0.00 0.01 0.00 0.00 0.00 0.00 0.00 0.00 0.00 0.00 0.00 0.00 0.00 0.00 0.00 0.00 0.01
0.01 0.02 0.02 0.03 0.04 0.03 0.03 0.04 0.05 0.03 0.02 0.01 0.01 0.01 0.01 0.02 0.04 0.04 0.04 0.03 0.02 0.02 0.02 0.02 0.02 0.02 0.01 0.00 0.00 0.00 0.00 0.00 0.00 0.00 0.00 0.00 0.00 0.00 0.00 0.00 0.00 0.00 0.00 0.01
0.01 0.01 0.01 0.01 0.02 0.02 0.02 0.02 0.03 0.02 0.02 0.01 0.01 0.01 0.01 0.01 0.02 0.03 0.04 0.03 0.03 0.02 0.01 0.01 0.02 0.02 0.01 0.00 0.00 0.00 0.00 0.00 0.00 0.00 0.00 0.00 0.01 0.00 0.00 0.00 0.00 0.00 0.00 0.01
0.00 0.01 0.01 0.01 0.01 0.01 0.01 0.02 0.03 0.02 0.02 0.01 0.01 0.01 0.01 0.01 0.01 0.02 0.03 0.03 0.03 0.02 0.02 0.01 0.01 0.03 0.02 0.01 0.00 0.00 0.00 0.00 0.00 0.00 0.00 0.01 0.01 0.00 0.01 0.01 0.00 0.00 0.00 0.00
0.00 0.01 0.01 0.01 0.00 0.01 0.00 0.01 0.02 0.03 0.03 0.02 0.01 0.00 0.01 0.00 0.01 0.01 0.01 0.02 0.02 0.02 0.02 0.01 0.01 0.01 0.02 0.02 0.01 0.00 0.00 0.00 0.00 0.01 0.01 0.01 0.01 0.00 0.01 0.01 0.00 0.01 0.01 0.00
MSLP
1013.12 1013.16 1012.99 1012.62 1012.05 1011.33 1010.50 1009.61 1008.72 1007.84 1007.01 1006.22 1005.46 1004.73 1004.04 1003.39 1002.80 1002.30 1001.91 1001.63 1001.47 1001.43 1001.49 1001.64 1001.87 1002.18 1002.57 1003.06 1003.66 1004.38 1005.21 1006.15 1007.14 1008.15 1009.12 1010.03 1010.85 1011.55 1012.16 1012.71 1013.23 1013.74 1014.29 1014.88
1013.01 1012.99 1012.79 1012.42 1011.91 1011.28 1010.58 1009.83 1009.05 1008.25 1007.43 1006.58 1005.70 1004.81 1003.93 1003.10 1002.35 1001.71 1001.23 1000.90 1000.72 1000.68 1000.74 1000.88 1001.10 1001.38 1001.74 1002.20 1002.79 1003.51 1004.38 1005.36 1006.41 1007.49 1008.53 1009.48 1010.33 1011.06 1011.68 1012.23 1012.76 1013.30 1013.87 1014.49
1012.86 1012.75 1012.52 1012.17 1011.74 1011.25 1010.71 1010.13 1009.49 1008.78 1007.98 1007.07 1006.06 1004.97 1003.87 1002.80 1001.84 1001.04 1000.43 1000.02 999.81 999.75 999.82 999.98 1000.19 1000.47 1000.83 1001.28 1001.87 1002.61 1003.51 1004.54 1005.64 1006.78 1007.87 1008.87 1009.75 1010.50 1011.14 1011.70 1012.24 1012.79 1013.37 1014.01
1012.77 1012.56 1012.28 1011.95 1011.61 1011.26 1010.90 1010.49 1010.01 1009.39 1008.60 1007.62 1006.46 1005.17 1003.82 1002.50 1001.30 1000.31 999.55 999.06 998.80 998.74 998.82 999.00 999.24 999.54 999.91 1000.38 1000.98 1001.73 1002.66 1003.72 1004.87 1006.04 1007.17 1008.21 1009.12 1009.89 1010.54 1011.11 1011.65 1012.20 1012.79 1013.43
1012.86 1012.51 1012.15 1011.81 1011.53 1011.30 1011.09 1010.85 1010.50 1009.96 1009.18 1008.12 1006.82 1005.32 1003.73 1002.16 1000.74 999.55 998.66 998.08 997.79 997.73 997.84 998.05 998.33 998.66 999.05 999.53 1000.14 1000.91 1001.84 1002.92 1004.09 1005.29 1006.45 1007.51 1008.44 1009.22 1009.88 1010.45 1010.99 1011.54 1012.12 1012.75
1013.13 1012.61 1012.13 1011.74 1011.47 1011.31 1011.21 1011.09 1010.83 1010.35 1009.56 1008.43 1007.00 1005.32 1003.53 1001.76 1000.15 998.81 997.81 997.17 996.86 996.82 996.96 997.21 997.53 997.88 998.28 998.77 999.38 1000.14 1001.06 1002.14 1003.31 1004.51 1005.68 1006.76 1007.70 1008.49 1009.15 1009.73 1010.27 1010.81 1011.39 1012.02
1013.58 1012.85 1012.20 1011.71 1011.39 1011.23 1011.17 1011.11 1010.90 1010.43 1009.63 1008.44 1006.91 1005.11 1003.17 1001.27 999.55 998.12 997.07 996.41 996.10 996.07 996.25 996.53 996.87 997.23 997.63 998.09 998.67 999.40 1000.30 1001.34 1002.49 1003.69 1004.86 1005.94 1006.89 1007.70 1008.38 1008.96 1009.51 1010.05 1010.63 1011.26
1014.08 1013.12 1012.28 1011.63 1011.21 1010.99 1010.91 1010.84 1010.63 1010.16 1009.33 1008.11 1006.53 1004.67 1002.69 1000.74 998.98 997.55 996.50 995.85 995.57 995.57 995.76 996.05 996.38 996.71 997.07 997.48 998.00 998.66 999.51 1000.51 1001.63 1002.80 1003.97 1005.06 1006.03 1006.86 1007.56 1008.17 1008.73 1009.29 1009.88 1010.52
1014.51 1013.33 1012.29 1011.47 1010.91 1010.59 1010.43 1010.30 1010.06 1009.56 1008.72 1007.50 1005.93 1004.10 1002.15 1000.25 998.55 997.18 996.19 995.59 995.35 995.36 995.54 995.79 996.06 996.32 996.59 996.91 997.33 997.91 998.67 999.61 1000.69 1001.85 1003.01 1004.11 1005.11 1005.97 1006.71 1007.36 1007.95 1008.54 1009.15 1009.81
1014.74 1013.38 1012.17 1011.19 1010.49 1010.05 1009.79 1009.59 1009.30 1008.79 1007.96 1006.78 1005.28 1003.54 1001.71 999.94 998.38 997.13 996.24 995.71 995.49 995.48 995.61 995.78 995.93 996.06 996.19 996.36 996.66 997.12 997.79 998.66 999.69 1000.83 1001.99 1003.12 1004.15 1005.06 1005.85 1006.54 1007.18 1007.80 1008.45 1009.13
1014.70 1013.23 1011.91 1010.83 1010.03 1009.50 1009.16 1008.89 1008.57 1008.05 1007.26 1006.16 1004.78 1003.21 1001.57 999.99 998.61 997.51 996.73 996.26 996.03 995.98 996.00 996.02 996.00 995.94 995.88 995.88 996.01 996.33 996.90 997.69 998.67 999.79 1000.95 1002.11 1003.18 1004.14 1004.98 1005.73 1006.41 1007.08 1007.76 1008.47
1014.40 1012.92 1011.58 1010.47 1009.64 1009.07 1008.69 1008.39 1008.05 1007.56 1006.84 1005.86 1004.65 1003.27 1001.85 1000.49 999.31 998.36 997.68 997.24 996.98 996.82 996.67 996.49 996.25 995.96 995.68 995.47 995.42 995.60 996.04 996.75 997.68 998.77 999.94 1001.11 1002.22 1003.23 1004.12 1004.91 1005.64 1006.35 1007.06 1007.79
1013.91 1012.52 1011.26 1010.22 1009.43 1008.88 1008.51 1008.23 1007.92 1007.48 1006.85 1006.00 1004.97 1003.81 1002.60 1001.46 1000.47 999.66 999.04 998.59 998.25 997.94 997.59 997.18 996.67 996.13 995.60 995.18 994.94 994.96 995.28 995.90 996.77 997.82 998.98 1000.16 1001.29 1002.33 1003.27 1004.10 1004.87 1005.60 1006.33 1007.08
1013.38 1012.15 1011.05 1010.15 1009.47 1009.01 1008.70 1008.47 1008.21 1007.84 1007.31 1006.60 1005.74 1004.77 1003.77 1002.82 1001.98 1001.27 1000.68 1000.19 999.73 999.24 998.67 997.99 997.22 996.41 995.64 995.00 994.58 994.44 994.64 995.17 995.97 996.98 998.11 999.28 1000.42 1001.47 1002.43 1003.29 1004.08 1004.84 1005.59 1006.35
1012.95 1011.93 1011.03 1010.32 1009.79 1009.45 1009.23 1009.06 1008.86 1008.56 1008.12 1007.53 1006.81 1006.01 1005.17 1004.37 1003.64 1002.99 1002.40 1001.83 1001.24 1000.55 999.75 998.83 997.80 996.75 995.76 994.92 994.33 994.06 994.14 994.57 995.30 996.25 997.34 998.48 999.61 1000.66 1001.62 1002.49 1003.30 1004.08 1004.84 1005.62
1012.75 1011.94 1011.26 1010.73 1010.36 1010.14 1010.00 1009.88 1009.73 1009.48 1009.10 1008.59 1007.97 1007.28 1006.57 1005.87 1005.21 1004.59 1003.98 1003.33 1002.59 1001.74 1000.73 999.58 998.34 997.08 995.90 994.90 994.17 993.77 993.75 994.09 994.74 995.63 996.67 997.77 998.86 999.90 1000.86 1001.73 1002.55 1003.35 1004.13 1004.92
1012.83 1012.21 1011.70 1011.33 1011.08 1010.93 1010.84 1010.75 1010.60 1010.35 1010.00 1009.53 1008.97 1008.35 1007.72 1007.09 1006.47 1005.86 1005.21 1004.49 1003.64 1002.64 1001.47 1000.15 998.74 997.33 996.01 994.88 994.04 993.55 993.44 993.70 994.27 995.09 996.07 997.12 998.19 999.21 1000.16 1001.04 1001.88 1002.69 1003.49 1004.31
1013.20 1012.71 1012.31 1012.01 1011.82 1011.69 1011.59 1011.46 1011.27 1010.99 1010.61 1010.14 1009.59 1009.02 1008.43 1007.84 1007.25 1006.65 1005.98 1005.20 1004.28 1003.18 1001.90 1000.47 998.95 997.44 996.03 994.82 993.90 993.33 993.16 993.35 993.86 994.62 995.54 996.56 997.60 998.61 999.56 1000.46 1001.31 1002.15 1002.98 1003.83
1013.77 1013.32 1012.96 1012.67 1012.45 1012.27 1012.10 1011.88 1011.61 1011.25 1010.81 1010.30 1009.75 1009.19 1008.63 1008.08 1007.52 1006.93 1006.27 1005.47 1004.52 1003.37 1002.04 1000.56 998.99 997.42 995.96 994.70 993.73 993.12 992.89 993.03 993.48 994.20 995.09 996.08 997.11 998.12 999.09 1000.02 1000.90 1001.77 1002.63 1003.51
1014.39 1013.93 1013.53 1013.19 1012.88 1012.59 1012.30 1011.96 1011.57 1011.11 1010.59 1010.04 1009.48 1008.92 1008.39 1007.87 1007.36 1006.80 1006.17 1005.39 1004.45 1003.30 1001.96 1000.47 998.89 997.31 995.83 994.55 993.55 992.91 992.64 992.74 993.16 993.84 994.72 995.71 996.74 997.78 998.78 999.74 1000.67 1001.57 1002.46 1003.36
1014.91 1014.40 1013.92 1013.47 1013.04 1012.62 1012.18 1011.71 1011.19 1010.63 1010.05 1009.45 1008.88 1008.34 1007.84 1007.37 1006.92 1006.42 1005.84 1005.11 1004.20 1003.09 1001.78 1000.31 998.74 997.17 995.70 994.41 993.40 992.74 992.44 992.52 992.92 993.59 994.46 995.46 996.52 997.59 998.64 999.65 1000.62 1001.55 1002.47 1003.37
1015.19 1014.60 1014.03 1013.47 1012.92 1012.37 1011.80 1011.20 1010.58 1009.95 1009.31 1008.69 1008.12 1007.61 1007.17 1006.77 1006.38 1005.95 1005.44 1004.78 1003.93 1002.88 1001.61 1000.18 998.65 997.10 995.63 994.35 993.34 992.66 992.35 992.40 992.79 993.46 994.35 995.37 996.47 997.59 998.69 999.75 1000.75 1001.71 1002.64 1003.54
1015.11 1014.47 1013.82 1013.17 1012.52 1011.87 1011.21 1010.54 1009.85 1009.17 1008.52 1007.91 1007.38 1006.92 1006.54 1006.21 1005.90 1005.55 1005.11 1004.53 1003.75 1002.75 1001.54 1000.16 998.66 997.15 995.70 994.43 993.41 992.72 992.40 992.44 992.82 993.50 994.40 995.46 996.60 997.77 998.92 1000.02 1001.05 1002.03 1002.96 1003.85
1014.64 1013.97 1013.28 1012.59 1011.90 1011.21 1010.51 1009.80 1009.11 1008.44 1007.81 1007.24 1006.76 1006.36 1006.05 1005.80 1005.56 1005.29 1004.92 1004.40 1003.69 1002.75 1001.60 1000.27 998.82 997.33 995.91 994.65 993.64 992.94 992.61 992.65 993.03 993.71 994.63 995.72 996.90 998.11 999.30 1000.43 1001.49 1002.48 1003.40 1004.27
1013.81 1013.15 1012.47 1011.79 1011.11 1010.44 1009.76 1009.09 1008.43 1007.81 1007.23 1006.73 1006.31 1005.99 1005.74 1005.56 1005.39 1005.17 1004.86 1004.40 1003.74 1002.86 1001.77 1000.49 999.09 997.65 996.27 995.03 994.03 993.34 993.00 993.04 993.42 994.10 995.03 996.14 997.35 998.59 999.81 1000.97 1002.05 1003.04 1003.96 1004.81
1012.70 1012.09 1011.48 1010.86 1010.25 1009.65 1009.05 1008.45 1007.87 1007.33 1006.83 1006.40 1006.05 1005.79 1005.60 1005.46 1005.33 1005.15 1004.88 1004.46 1003.84 1003.02 1001.98 1000.76 999.43 998.04 996.71 995.51 994.55 993.87 993.55 993.58 993.96 994.65 995.58 996.70 997.92 999.19 1000.43 1001.61 1002.71 1003.70 1004.62 1005.46
Thickness
5443 5439 5443 5453 5458 5468 5477 5485 5496 5516 5532 5536 5547 5560 5575 5590 5599 5611 5623 5633 5642 5654 5667 5673 5679 5684 5686 5687 5689 5690 5689 5688 5686 5685 5685 5684 5684 5685 5684 5683 5682 5681 5679 5677
5428 5433 5449 5454 5456 5459 5465 5471 5483 5502 5521 5526 5534 5548 5566 5579 5592 5604 5616 5627 5638 5647 5657 5666 5674 5678 5682 5685 5687 5688 5688 5688 5687 5688 5687 5686 5683 5680 5679 5679 5679 5678 5677 5675
5420 5437 5448 5449 5449 5449 5457 5464 5476 5488 5506 5515 5520 5533 5553 5572 5586 5599 5610 5623 5634 5644 5653 5662 5669 5675 5680 5684 5687 5689 5689 5688 5687 5686 5681 5677 5673 5672 5672 5675 5676 5676 5675 5673
5423 5437 5442 5442 5445 5446 5453 5470 5475 5481 5485 5497 5510 5518 5545 5565 5577 5592 5605 5617 5629 5641 5651 5660 5667 5672 5678 5684 5688 5689 5689 5688 5686 5683 5680 5678 5677 5677 5680 5678 5675 5673 5672 5670
5417 5430 5433 5436 5445 5448 5453 5465 5470 5476 5476 5480 5497 5503 5531 5555 5568 5587 5603 5616 5628 5638 5648 5657 5665 5673 5678 5683 5685 5687 5687 5685 5684 5682 5681 5679 5678 5678 5675 5672 5670 5669 5668 5668
5417 5426 5427 5432 5443 5448 5452 5456 5460 5465 5466 5470 5495 5498 5520 5546 5571 5589 5603 5614 5625 5634 5643 5653 5662 5668 5673 5678 5681 5683 5683 5683 5682 5681 5680 5679 5677 5674 5671 5669 5668 5667 5666 5665
5404 5420 5426 5430 5431 5440 5443 5439 5440 5449 5457 5472 5501 5500 5520 5553 5573 5587 5599 5611 5621 5630 5638 5646 5654 5661 5667 5672 5676 5679 5680 5680 5679 5678 5678 5678 5677 5674 5672 5671 5668 5666 5665 5664
5379 5397 5416 5423 5424 5428 5434 5434 5435 5448 5463 5478 5499 5505 5527 5553 5567 5579 5592 5603 5613 5622 5632 5641 5650 5657 5663 5668 5673 5676 5677 5677 5677 5677 5677 5677 5675 5672 5671 5669 5668 5667 5667 5666
5372 5388 5413 5421 5426 5426 5429 5434 5444 5447 5460 5468 5489 5509 5527 5544 5555 5567 5579 5592 5603 5616 5626 5636 5644 5651 5658 5664 5669 5673 5675 5675 5675 5675 5674 5673 5672 5671 5671 5669 5667 5666 5665 5662
5369 5375 5399 5414 5423 5426 5426 5435 5439 5439 5448 5464 5483 5499 5511 5530 5544 5556 5568 5580 5594 5606 5616 5627 5636 5644 5653 5659 5664 5668 5671 5672 5673 5672 5671 5671 5670 5670 5669 5666 5664 5664 5662 5659
5369 5367 5384 5396 5401 5407 5414 5423 5430 5437 5444 5456 5475 5494 5510 5522 5534 5543 5553 5568 5582 5594 5605 5617 5627 5636 5644 5651 5657 5660 5664 5666 5667 5668 5668 5667 5667 5667 5665 5663 5663 5662 5659 5656
5367 5361 5363 5381 5398 5404 5405 5409 5416 5422 5431 5446 5462 5484 5505 5512 5520 5528 5539 5554 5568 5581 5593 5604 5614 5623 5631 5639 5647 5652 5657 5659 5663 5665 5664 5664 5664 5663 5662 5662 5661 5659 5656 5654
5363 5353 5352 5371 5384 5389 5389 5395 5401 5407 5418 5435 5452 5478 5497 5499 5508 5516 5527 5540 5552 5566 5578 5589 5600 5609 5618 5627 5635 5643 5648 5652 5656 5658 5659 5658 5658 5659 5659 5659 5658 5656 5654 5651
5369 5349 5348 5353 5363 5370 5377 5389 5397 5401 5410 5424 5443 5464 5479 5485 5492 5502 5512 5524 5536 5551 5563 5574 5584 5594 5605 5615 5623 5631 5637 5643 5647 5650 5651 5653 5655 5656 5657 5656 5655 5653 5651 5648
5355 5345 5350 5360 5372 5376 5380 5389 5395 5398 5406 5416 5437 5451 5462 5469 5476 5485 5497 5511 5524 5537 5549 5560 5570 5580 5591 5602 5611 5620 5627 5633 5638 5641 5644 5648 5650 5651 5650 5650 5650 5649 5647 5645
5344 5341 5347 5357 5376 5378 5383 5392 5397 5402 5407 5416 5429 5441 5452 5458 5466 5474 5484 5496 5509 5521 5534 5546 5558 5568 5578 5588 5598 5608 5616 5622 5628 5632 5636 5640 5641 5642 5643 5645 5644 5643 5642 5640
5335 5334 5339 5348 5365 5371 5374 5385 5392 5397 5404 5410 5418 5430 5440 5448 5456 5463 5473 5484 5495 5507 5519 5532 5543 5556 5566 5577 5587 5596 5604 5612 5618 5623 5627 5630 5632 5634 5636 5637 5637 5637 5636 5634
5332 5331 5332 5340 5348 5350 5371 5384 5388 5393 5395 5401 5409 5417 5428 5437 5448 5456 5463 5472 5483 5495 5507 5519 5530 5543 5555 5566 5576 5585 5593 5601 5607 5613 5617 5620 5623 5626 5628 5629 5630 5630 5629 5627
5338 5332 5328 5332 5335 5351 5369 5379 5381 5384 5387 5392 5400 5409 5419 5429 5442 5450 5457 5463 5472 5484 5497 5508 5520 5532 5543 5554 5564 5573 5581 5589 5596 5601 5606 5611 5615 5617 5619 5621 5623 5623 5621 5619
5336 5329 5324 5324 5333 5347 5361 5375 5381 5381 5378 5387 5394 5400 5409 5417 5424 5436 5446 5454 5465 5477 5488 5499 5511 5523 5533 5542 5553 5561 5569 5577 5584 5591 5596 5602 5606 5609 5612 5613 5614 5614 5613 5612
5323 5317 5314 5316 5323 5342 5358 5367 5373 5364 5365 5379 5385 5392 5398 5403 5412 5424 5436 5446 5457 5468 5479 5490 5500 5511 5522 5532 5542 5550 5558 5566 5573 5580 5586 5592 5596 5600 5603 5604 5605 5605 5604 5603
5318 5311 5310 5313 5317 5334 5355 5357 5355 5355 5365 5371 5378 5384 5391 5398 5408 5417 5426 5436 5448 5459 5470 5480 5489 5500 5511 5521 5530 5539 5547 5555 5562 5570 5576 5581 5586 5590 5593 5595 5595 5595 5595 5593
5319 5319 5317 5318 5329 5342 5347 5349 5353 5356 5359 5364 5370 5378 5385 5392 5400 5409 5418 5428 5438 5449 5459 5469 5478 5489 5501 5510 5520 5528 5536 5543 5551 5559 5565 5570 5575 5579 5583 5585 5586 5586 5585 5585
5317 5322 5317 5319 5330 5337 5341 5344 5348 5352 5354 5359 5365 5371 5377 5385 5393 5401 5410 5419 5429 5439 5448 5458 5468 5479 5490 5500 5509 5517 5524 5532 5541 5547 5553 5559 5563 5567 5571 5574 5575 5576 5576 5576
5314 5316 5313 5315 5325 5329 5337 5340 5343 5347 5351 5354 5359 5365 5371 5378 5386 5393 5402 5410 5420 5429 5438 5448 5458 5468 5479 5489 5498 5506 5514 5522 5529 5535 5542 5547 5552 5556 5559 5561 5563 5565 5567 5570
5313 5311 5309 5316 5324 5321 5328 5335 5337 5340 5345 5349 5352 5358 5364 5370 5378 5386 5394 5403 5411 5421 5429 5439 5449 5458 5468 5478 5487 5496 5504 5511 5518 5524 5530 5536 5540 5544 5547 5549 5549 5550 5554 5556